Wind_Speed
18 17 16 16 15 13 14 13 13 10 8 8 8 11 10 11 12 9 10 8 4 5 6 6 6 6 9 11 13 7 11 10 8 6 7 6 7 5 7 6 13 16 10
18 17 17 16 14 16 15 14 13 12 11 10 10 11 11 11 9 6 11 13 10 8 8 7 5 8 1 8 8 4 8 8 7 10 11 5 2 4 1 5 5 16 13
17 17 17 17 16 14 13 14 13 12 12 12 12 12 10 12 12 12 10 11 11 12 9 7 6 7 6 7 7 10 6 11 5 10 5 9 1 2 2 2 3 10 12
16 19 18 17 16 14 13 12 11 13 13 14 11 12 12 12 12 12 9 9 10 10 10 8 8 9 8 6 7 8 11 6 12 8 11 6 7 4 5 8 2 7 12
16 10 8 8 11 11 10 11 9 11 10 10 11 11 11 11 11 11 10 10 9 10 10 10 11 10 8 7 8 8 7 6 14 14 16 19 15 7 8 9 4 2 4
17 15 5 8 11 12 9 7 6 6 8 9 10 9 8 9 7 9 12 9 9 11 11 11 12 9 10 11 9 11 10 6 9 9 14 10 8 6 7 8 6 1 3
15 10 10 8 8 13 13 12 10 10 8 10 11 10 7 10 9 8 9 7 7 9 10 14 11 7 9 8 7 6 6 7 9 9 8 10 7 6 6 7 7 4 5
10 5 6 7 11 9 12 9 7 7 9 13 7 5 5 3 4 5 5 4 5 6 8 10 9 10 10 6 5 5 5 1 1 2 3 4 6 8 5 6 4 4 4
4 5 5 4 5 6 7 7 4 5 4 5 4 4 11 3 4 3 3 3 2 4 4 5 9 9 11 10 8 8 4 3 2 5 5 6 6 3 2 2 1 4 3
8 8 9 8 7 9 9 10 10 8 6 4 4 3 2 5 8 9 9 7 8 6 2 4 11 11 10 7 6 8 7 7 7 7 8 10 10 12 5 9 8 2 4
10 11 11 10 9 7 6 5 4 4 4 2 1 4 5 7 8 10 8 8 9 6 5 3 4 10 9 8 7 6 7 9 6 9 5 8 10 12 12 12 13 11 10
13 13 12 10 10 8 8 7 7 6 7 6 5 5 4 6 9 8 4 3 5 6 7 4 5 5 4 6 8 9 8 8 8 8 9 10 10 10 11 15 15 13 11
14 12 12 12 14 12 11 11 10 9 9 9 9 6 5 5 8 11 11 7 4 3 8 9 6 6 6 7 8 12 11 14 12 12 12 12 12 11 10 9 12 11 11
12 11 10 12 11 10 11 11 9 7 5 7 7 5 6 4 5 7 8 12 14 15 13 10 9 12 13 15 13 13 13 14 14 14 13 9 7 8 9 9 9 9 6
12 10 10 10 9 9 10 10 9 10 8 6 6 5 5 6 3 3 4 3 6 9 13 10 10 11 13 16 17 16 16 16 15 12 10 9 6 8 9 7 7 7 10
10 9 9 9 9 9 10 12 12 11 10 10 7 7 5 7 7 8 7 8 13 12 7 9 10 10 11 11 10 11 10 9 8 7 5 3 4 5 6 6 6 7 8
8 8 8 7 8 8 8 9 10 10 8 7 7 7 6 8 9 12 13 13 13 8 7 6 6 7 7 6 6 6 6 5 5 4 5 4 4 6 4 6 7 3 2
8 8 6 6 6 5 5 5 6 7 8 6 6 8 10 10 11 11 11 8 5 1 6 7 5 7 6 5 5 5 5 6 5 6 7 7 6 4 3 2 4 9 9
6 5 4 4 4 4 4 4 5 5 5 8 8 7 9 9 9 9 3 4 5 4 4 5 5 5 5 5 5 5 5 5 4 3 3 3 2 2 4 5 4 5 6
3 5 0 4 4 5 4 4 5 3 2 3 6 7 7 6 4 5 4 4 3 4 3 3 4 4 4 5 5 5 4 5 2 3 3 3 3 4 5 4 5 7 6
5 5 3 4 4 3 4 3 3 3 4 4 3 5 6 5 3 3 3 4 3 2 2 3 4 4 4 4 5 5 4 2 1 1 1 2 2 2 3 3 3 4 4
5 6 5 6 5 5 6 6 6 7 6 6 7 8 7 8 7 6 5 4 3 2 3 4 5 5 4 5 5 3 2 2 2 2 2 2 2 3 2 2 2 3 4
9 8 6 6 7 5 6 10 9 9 9 7 8 13 9 9 9 6 5 5 4 5 5 5 5 5 5 4 4 4 4 4 3 4 4 3 2 1 0 1 3 4 5
12 11 10 4 4 13 9 11 12 10 10 10 10 11 9 8 9 8 6 6 5 5 5 6 6 6 7 6 5 5 5 5 5 5 4 3 2 1 1 2 3 4 5
12 13 8 8 9 12 16 14 14 12 10 11 13 9 10 10 8 7 7 7 7 9 9 8 8 8 9 9 7 6 10 8 7 7 3 2 1 1 4 6 3 6 6
11 9 9 12 14 11 11 13 11 11 10 9 11 11 10 7 7 9 8 8 9 12 11 12 11 12 12 12 11 12 10 9 10 10 7 5 5 6 6 7 7 10 10
Wind_Direction
203 204 209 209 212 213 223 222 229 246 259 257 260 269 252 240 239 240 259 285 279 262 283 278 265 296 290 313 330 309 326 344 293 345 294 59 337 351 26 17 116 190 88
203 204 208 217 222 220 214 223 215 229 240 244 242 245 244 247 258 235 250 264 238 232 256 258 274 277 264 278 291 8 309 314 303 322 296 284 219 272 44 352 56 140 91
200 203 211 210 210 226 229 223 236 234 237 238 237 239 245 251 237 243 237 247 258 264 246 247 252 259 247 281 308 312 322 307 252 294 317 252 240 247 296 340 337 131 98
217 202 204 213 217 221 226 229 233 237 240 243 243 237 237 240 242 246 247 234 248 261 266 247 260 260 279 263 262 282 269 305 284 269 277 4 298 280 331 297 210 124 104
275 270 208 220 226 226 230 231 228 239 243 246 242 240 239 237 235 228 241 234 231 245 250 254 238 246 248 268 265 293 325 296 293 336 309 28 46 106 288 350 26 128 130
253 253 253 249 223 231 228 218 213 279 265 253 246 234 236 236 242 218 223 256 249 249 257 251 249 255 256 248 252 257 256 280 281 309 309 2 344 319 19 307 48 43 205
250 247 265 274 244 210 210 230 218 232 286 291 263 244 214 231 236 228 230 238 261 265 258 249 245 262 214 236 246 227 230 248 259 263 303 313 323 339 332 301 310 290 228
217 195 232 244 219 178 182 189 209 217 227 261 257 268 194 239 230 227 234 234 263 276 254 247 252 249 233 224 204 142 110 102 88 117 235 291 315 299 300 283 284 194 144
108 124 133 158 154 147 130 110 133 166 154 165 123 122 79 12 284 266 276 271 299 296 294 232 228 225 228 222 221 213 194 129 93 59 38 19 15 351 298 311 263 205 149
73 77 88 95 92 105 107 110 99 88 107 101 116 99 68 340 323 303 276 254 263 227 242 275 205 199 208 215 201 177 149 141 118 98 80 75 61 42 65 67 22 309 189
93 102 93 90 91 99 101 98 114 146 125 106 55 28 14 7 347 323 291 254 271 252 168 114 337 230 214 200 189 175 176 163 141 111 105 101 72 59 45 44 55 46 30
105 100 93 91 94 94 94 91 86 93 100 101 92 79 71 43 34 8 352 277 255 142 131 109 82 60 144 173 168 162 150 138 136 131 119 85 87 63 49 44 44 53 52
97 90 91 92 87 82 87 89 94 95 99 96 87 94 72 58 36 46 44 56 72 119 109 109 111 100 115 121 117 118 122 115 111 88 82 70 67 72 63 36 29 39 46
96 90 87 85 85 86 80 85 78 62 69 95 98 86 96 84 61 42 49 67 85 111 111 104 104 117 121 117 121 112 106 96 99 97 93 81 82 84 73 73 65 39 25
99 97 95 91 92 91 87 82 74 69 67 71 62 40 24 99 59 128 110 103 112 120 110 112 99 95 94 94 95 99 99 103 103 108 119 123 87 73 62 53 67 77 77
116 108 107 107 103 110 112 101 98 93 89 90 94 94 82 115 125 117 121 131 122 110 122 118 116 114 110 111 109 108 110 110 114 117 114 105 83 78 75 73 84 67 50
118 126 130 133 133 138 133 128 114 103 95 87 87 85 113 120 123 121 120 118 121 115 118 119 120 126 131 129 125 127 125 117 93 69 61 73 74 71 65 50 31 350 199
124 132 134 135 135 125 124 125 127 146 144 111 92 95 104 113 120 118 123 136 183 163 165 185 155 124 129 119 116 110 111 109 110 96 73 65 52 30 4 24 43 12 3
152 119 114 106 97 115 133 130 119 130 120 128 124 104 115 115 115 108 107 272 127 108 116 97 106 97 110 113 113 113 114 110 108 104 93 71 36 9 37 23 49 33 9
123 134 153 147 145 151 150 142 136 136 167 151 156 133 155 146 157 167 146 116 106 111 122 115 117 124 134 127 117 122 110 120 110 78 56 47 22 17 30 19 22 357 3
159 155 249 247 212 208 210 214 208 219 192 182 184 151 183 227 196 183 195 181 233 169 170 153 148 146 159 154 156 168 169 144 130 94 63 56 20 41 31 22 15 18 14
237 207 186 244 250 227 248 244 233 241 238 219 188 168 200 229 239 210 225 226 210 202 175 181 187 189 183 181 183 190 185 175 133 145 131 106 97 81 64 32 21 355 352
249 257 218 207 262 256 263 259 262 250 258 252 248 169 185 226 237 218 207 220 195 199 189 190 191 190 185 184 178 168 165 163 167 159 148 146 144 130 59 16 8 4 6
264 252 251 193 250 286 250 249 251 257 281 273 239 249 232 224 233 227 227 221 213 213 206 204 196 187 178 177 180 179 169 147 144 147 149 149 140 96 334 342 352 0 339
256 265 268 275 245 262 268 248 257 254 251 237 259 244 236 249 250 253 254 250 247 233 224 225 226 213 204 199 196 189 180 173 153 165 163 182 237 296 310 313 324 317 332
263 269 243 234 225 235 259 281 275 255 254 263 269 257 255 252 259 245 251 260 262 259 260 244 232 235 220 219 219 211 211 209 193 191 192 234 259 276 295 307 312 306 312
Height
828 831 834 836 839 842 843 845 847 848 850 851 853 852 851 852 854 855 855 854 855 855 855 856 855 854 853 850 848 845 843 844 845 843 845 835 833 845 850 851 846 841 852
823 828 831 834 836 837 839 841 844 846 848 849 850 851 851 851 851 852 854 852 851 852 853 853 854 852 853 852 850 848 845 845 846 847 844 841 840 845 851 853 852 850 851
819 823 826 829 832 836 836 839 840 843 844 845 846 848 848 849 849 849 850 851 851 850 850 851 853 852 851 851 852 850 848 845 843 844 842 840 837 838 843 847 848 847 847
814 817 821 826 829 831 833 835 839 840 842 842 844 845 845 846 845 846 847 847 848 847 848 849 850 850 850 850 850 850 848 847 844 842 838 837 836 835 835 835 838 842 841
816 814 815 823 827 830 832 832 836 838 839 840 840 842 843 843 842 843 844 844 845 846 846 847 847 847 847 848 849 848 847 847 846 842 842 840 840 839 841 837 837 839 843
819 817 818 822 824 827 830 831 834 836 838 838 839 839 840 839 839 840 841 843 843 844 844 844 845 844 844 845 846 846 847 848 848 847 844 843 846 843 841 842 843 844 846
814 816 815 819 822 824 827 829 830 833 836 836 838 839 839 837 838 838 839 840 842 842 843 843 842 841 842 844 843 842 844 845 845 846 847 847 846 846 845 845 845 846 847
811 811 814 817 818 824 825 827 829 830 830 834 835 837 836 836 837 837 837 838 839 841 840 841 841 841 841 842 843 843 843 842 844 844 845 846 846 845 846 846 846 846 847
811 813 816 818 819 821 824 827 830 831 832 832 834 834 835 837 837 836 837 838 836 839 839 839 839 839 840 841 841 840 841 841 842 844 844 845 846 844 844 845 845 846 848
816 818 819 820 822 823 826 828 830 832 833 832 834 834 835 836 835 836 836 834 836 836 837 837 835 835 836 839 840 840 840 842 844 846 846 847 848 847 845 844 845 844 846
819 820 821 822 825 827 828 830 831 832 833 835 837 838 837 834 836 835 833 833 834 835 835 837 836 835 835 837 839 840 840 842 845 845 848 849 849 848 848 847 846 845 846
823 823 825 827 828 828 829 831 833 835 835 837 837 837 838 837 835 835 833 833 833 832 833 837 839 837 836 838 838 839 841 843 846 847 848 849 850 852 851 851 850 849 850
825 827 829 830 829 831 832 833 834 836 836 837 837 838 841 841 839 837 835 832 833 836 837 839 840 839 840 840 841 840 841 844 846 850 853 855 856 855 854 853 854 853 853
829 830 832 831 834 836 836 836 837 837 837 840 841 841 840 841 842 842 841 839 837 839 841 843 844 843 842 843 845 846 847 848 851 853 856 858 858 856 855 854 854 854 856
830 832 833 834 836 838 838 838 840 839 841 840 843 842 841 841 844 844 845 846 844 844 844 847 849 851 851 847 849 851 852 852 854 858 859 858 860 857 857 859 858 857 857
832 834 835 836 838 839 840 841 841 842 844 843 845 845 844 844 845 845 847 848 848 848 849 850 851 853 853 854 854 855 855 858 858 859 859 860 859 858 859 860 859 859 858
833 835 837 838 838 840 841 842 843 845 847 846 846 847 846 846 847 848 850 850 851 851 852 853 854 853 855 857 857 858 858 859 861 862 861 861 861 860 862 861 862 862 861
835 835 835 836 836 837 838 840 840 840 843 849 848 848 848 850 849 850 852 852 852 852 851 853 852 854 856 857 859 859 861 860 862 863 863 863 864 865 864 863 863 863 863
834 834 836 837 837 838 838 838 840 842 844 847 849 850 851 852 851 851 852 852 851 853 855 854 855 856 857 860 860 860 861 863 864 863 865 865 865 863 864 865 867 866 864
837 838 838 837 840 839 839 839 841 843 844 843 843 848 852 851 853 854 855 853 853 853 856 857 855 858 860 860 862 862 864 864 866 864 866 865 867 866 865 866 867 867 867
834 838 839 838 836 837 838 839 839 840 841 843 845 847 850 850 850 850 851 854 854 854 855 856 856 858 862 860 861 864 864 864 867 865 866 867 868 867 868 870 870 867 871
833 832 835 836 836 837 838 838 839 840 839 840 842 847 849 851 848 849 851 851 852 853 854 856 858 859 859 860 862 862 863 865 866 867 868 869 869 867 869 871 868 869 869
831 830 830 834 836 837 839 839 837 837 838 838 839 842 846 847 845 846 847 849 851 853 854 855 857 858 859 860 861 861 862 864 867 866 867 867 868 868 869 868 869 868 868
829 827 827 829 833 834 834 836 837 837 838 836 837 838 839 841 843 843 845 847 849 851 853 854 854 855 857 859 860 861 862 863 865 866 867 867 867 869 869 868 867 867 867
827 825 826 829 831 833 832 832 832 833 834 836 836 837 839 840 840 842 844 845 847 848 849 852 853 854 856 857 858 860 860 862 864 865 867 867 867 868 868 867 865 866 866
822 823 823 824 827 828 830 830 829 831 833 834 836 836 838 839 840 842 844 845 846 846 847 848 849 851 853 855 857 857 859 860 861 862 863 865 866 866 866 866 866 866 865